Weather History for Prince George, BC

Change the Weather History Date:

Tuesday, April 23, 2013

  Actual Average Record
Temperature  
Mean Temperature 44 °F -  
Max Temperature 54 °F 53 °F 71 °F (2005)
Min Temperature 34 °F 31 °F 21 °F (2009)
Degree Days  
Heating Degree Days 21    
Moisture  
Dew Point 30 °F    
Average Humidity 65    
Maximum Humidity 93    
Minimum Humidity 17    
Precipitation  
Precipitation 0.04 in - - ()
Sea Level Pressure  
Sea Level Pressure 30.38 in    
Wind  
Wind Speed 7 mph ()    
Max Wind Speed 16 mph    
Max Gust Speed 26 mph    
Visibility 9.0 miles    
Events Rain    
Averages and records for this station are not official NWS values.
T = Trace of Precipitation, MM = Missing Value Source: Averaged Metar Reports

Daily Weather History Graph

Daily Weather History Graph

Search for Another Location

Airport:

Trip Planner

Search our weather history database for the weather conditions in past years. The results will help you decide how hot, cold, wet, or windy it might be!

Date:

Astronomy

Apr. 23, 2013 Rise Set
Actual Time 5:50 AM PDT 8:28 PM PDT
Civil Twilight 5:11 AM PDT 9:07 PM PDT
Nautical Twilight 4:20 AM PDT 9:59 PM PDT
Astronomical Twilight 3:18 AM PDT 11:02 PM PDT
Moon 6:15 PM PDT (4/23) 4:42 AM PDT (4/23)
Length of Visible Light 15h 56m
Length of Day
14h 37m
Waxing Gibbous, 94% of the Moon is Illuminated
Apr 23
Waxing Gibbous
Apr 25
Full
May 2
Last Quarter
May 9
New
May 17
First Quarter

Hourly Weather History & Observations

Time (PDT) Temp. Windchill Dew Point Humidity Pressure Visibility Wind Dir Wind Speed Gust Speed Precip Events Conditions
12:00 AM 44.6 °F 41.4 °F 21.2 °F 39% 30.31 in 9.0 mi West 5.8 mph - N/A   Overcast
1:00 AM 44.6 °F 39.7 °F 28.4 °F 53% 30.31 in 9.0 mi West 9.2 mph 20.7 mph N/A   Overcast
1:43 AM 42.8 °F 36.2 °F 28.4 °F 57% 30.32 in 9.0 mi NW 12.7 mph 20.7 mph N/A Rain Light Rain
2:00 AM 41 °F - 32 °F 60% 30.33 in 10 mi NW 15.0 mph - - Rain Light Rain
2:00 AM 41.0 °F 33.9 °F 32.0 °F 70% 30.33 in 9.0 mi NNW 12.7 mph 25.3 mph N/A Rain Light Rain
2:10 AM 41.0 °F 32.8 °F 32.0 °F 70% 30.33 in 9.0 mi WNW 16.1 mph 26.5 mph N/A Rain Light Rain
2:29 AM 39.2 °F 30.8 °F 33.8 °F 81% 30.35 in 8.0 mi NW 15.0 mph 25.3 mph N/A Rain Light Rain
2:40 AM 37.4 °F 29.8 °F 33.8 °F 87% 30.34 in 9.0 mi WNW 11.5 mph 19.6 mph N/A Rain Light Rain
2:48 AM 37.4 °F 30.3 °F 33.8 °F 87% 30.35 in 9.0 mi WNW 10.4 mph 17.3 mph N/A Rain Light Rain
3:00 AM 37.4 °F 30.8 °F 33.8 °F 87% 30.35 in 9.0 mi WNW 9.2 mph - N/A Rain Light Rain
3:15 AM 37.4 °F 30.3 °F 33.8 °F 87% 30.35 in 5.0 mi NW 10.4 mph - N/A Rain Light Rain
3:26 AM 37.4 °F 30.8 °F 33.8 °F 87% 30.35 in 6.0 mi WNW 9.2 mph - N/A Rain Light Rain
4:00 AM 35.6 °F 28.0 °F 33.8 °F 93% 30.35 in 9.0 mi NW 10.4 mph - N/A Rain Light Rain
4:08 AM 35.6 °F 29.2 °F 33.8 °F 93% 30.35 in 9.0 mi NW 8.1 mph - N/A Rain Light Rain
4:58 AM 35.6 °F - 33.8 °F 93% 30.37 in 9.0 mi Variable 2.3 mph - N/A Rain Light Rain
5:00 AM 35 °F - 34 °F 93% 30.37 in 10 mi NNW 3.5 mph - - Rain Light Rain
5:00 AM 35.6 °F 32.8 °F 33.8 °F 93% 30.37 in 9.0 mi NNW 3.5 mph - N/A Rain Light Rain
5:02 AM 35.6 °F 32.8 °F 33.8 °F 93% 30.37 in 9.0 mi North 3.5 mph - N/A Rain Light Rain
5:17 AM 35.6 °F 32.8 °F 33.8 °F 93% 30.37 in 9.0 mi North 3.5 mph - N/A   Mostly Cloudy
5:39 AM 35.6 °F - 33.8 °F 93% 30.38 in 9.0 mi North 2.3 mph - N/A   Overcast
5:44 AM 35.6 °F - 33.8 °F 93% 30.38 in 9.0 mi North 2.3 mph - N/A   Overcast
5:52 AM 35.6 °F - 33.8 °F 93% 30.38 in 9.0 mi North 2.3 mph - N/A Rain Light Rain
6:00 AM 35.6 °F - 33.8 °F 93% 30.38 in 9.0 mi Calm Calm - N/A Rain Light Rain
6:19 AM 35.6 °F - 33.8 °F 93% 30.39 in 9.0 mi Calm Calm - N/A   Mostly Cloudy
7:00 AM 35.6 °F - 33.8 °F 93% 30.40 in 9.0 mi Variable 2.3 mph - N/A   Partly Cloudy
8:00 AM 38 °F - 34 °F 78% 30.43 in 10 mi NW 6.9 mph - -   Clear
8:00 AM 39.2 °F 34.2 °F 33.8 °F 81% 30.42 in 9.0 mi NNW 6.9 mph - N/A   Clear
9:00 AM 41.0 °F 35.2 °F 33.8 °F 76% 30.44 in 9.0 mi North 9.2 mph - N/A   Clear
10:00 AM 42.8 °F 40.1 °F 33.8 °F 70% 30.45 in 9.0 mi North 4.6 mph - N/A   Clear
11:00 AM 46 °F - 33 °F 48% 30.45 in 10 mi North 2.3 mph - -  
11:00 AM 46.4 °F - 32.0 °F 57% 30.45 in 9.0 mi Variable 2.3 mph - N/A   Scattered Clouds
12:00 PM 48.2 °F - 28.4 °F 46% 30.44 in 9.0 mi Variable 5.8 mph - N/A   Scattered Clouds
1:00 PM 50.0 °F - 24.8 °F 37% 30.44 in 9.0 mi Calm Calm - N/A   Scattered Clouds
2:00 PM 52 °F - 22 °F 19% 30.43 in 10 mi WNW 6.9 mph - -  
2:00 PM 51.8 °F - 21.2 °F 30% 30.42 in 9.0 mi NNW 9.2 mph - N/A   Partly Cloudy
3:00 PM 53.6 °F - 19.4 °F 26% 30.41 in 9.0 mi WNW 8.1 mph - N/A   Clear
4:00 PM 53.6 °F - 19.4 °F 26% 30.40 in 9.0 mi WNW 4.6 mph - N/A   Clear
5:00 PM 53 °F - 21 °F 17% 30.38 in 10 mi WNW 9.2 mph - -  
5:00 PM 53.6 °F - 21.2 °F 28% 30.38 in 9.0 mi WNW 10.4 mph - N/A   Clear
6:00 PM 53.6 °F - 14.0 °F 21% 30.38 in 9.0 mi WNW 13.8 mph 21.9 mph N/A   Clear
8:00 PM 49 °F - 24 °F 24% 30.35 in 10 mi West 4.6 mph - -  
8:00 PM 50.0 °F - 23.0 °F 35% 30.35 in 9.0 mi West 4.6 mph - N/A   Clear
9:00 PM 41.0 °F - 26.6 °F 57% 30.35 in 9.0 mi SSW 2.3 mph - N/A   Clear
10:00 PM 41.0 °F 39.0 °F 26.6 °F 57% 30.35 in 9.0 mi South 3.5 mph - N/A   Clear
11:00 PM 38 °F - 25 °F 47% 30.34 in 10 mi South 5.8 mph - -  
11:00 PM 39.2 °F 35.9 °F 24.8 °F 56% 30.34 in 9.0 mi South 4.6 mph - N/A   Clear